QPF
0.02 0.02 0.02 0.02 0.02 0.02 0.01 0.01 0.00 0.00 0.00 0.00 0.00 0.00 0.00 0.00 0.00 0.00 0.00 0.00 0.00 0.00 0.00 0.00 0.00 0.00 0.00 0.01 0.01 0.01 0.01 0.02 0.02 0.02 0.02 0.03 0.03 0.04
0.01 0.01 0.01 0.01 0.01 0.01 0.00 0.00 0.00 0.00 0.00 0.00 0.00 0.00 0.00 0.00 0.00 0.00 0.00 0.00 0.00 0.00 0.00 0.00 0.00 0.00 0.00 0.00 0.01 0.01 0.01 0.01 0.01 0.01 0.02 0.02 0.03 0.04
0.00 0.00 0.00 0.00 0.00 0.00 0.00 0.00 0.00 0.00 0.00 0.00 0.00 0.00 0.00 0.00 0.00 0.00 0.00 0.00 0.00 0.00 0.00 0.00 0.00 0.00 0.00 0.00 0.00 0.00 0.00 0.01 0.01 0.01 0.01 0.02 0.02 0.03
0.00 0.00 0.00 0.00 0.00 0.00 0.00 0.00 0.00 0.00 0.00 0.00 0.00 0.00 0.00 0.00 0.00 0.00 0.00 0.00 0.00 0.00 0.00 0.00 0.00 0.00 0.00 0.00 0.00 0.00 0.00 0.00 0.00 0.01 0.01 0.01 0.01 0.02
0.00 0.00 0.00 0.00 0.00 0.00 0.00 0.00 0.00 0.00 0.00 0.00 0.00 0.00 0.00 0.00 0.00 0.00 0.00 0.00 0.00 0.00 0.00 0.00 0.00 0.00 0.00 0.00 0.00 0.00 0.00 0.00 0.00 0.00 0.00 0.00 0.01 0.01
0.00 0.00 0.00 0.00 0.00 0.00 0.00 0.00 0.00 0.00 0.00 0.00 0.00 0.00 0.00 0.00 0.00 0.00 0.00 0.00 0.00 0.00 0.00 0.00 0.00 0.00 0.00 0.00 0.00 0.00 0.00 0.00 0.00 0.00 0.00 0.00 0.00 0.00
0.00 0.00 0.00 0.00 0.00 0.00 0.00 0.00 0.00 0.00 0.00 0.00 0.00 0.00 0.00 0.00 0.00 0.00 0.00 0.00 0.00 0.00 0.00 0.00 0.00 0.00 0.00 0.00 0.00 0.00 0.00 0.00 0.00 0.00 0.00 0.00 0.00 0.00
0.00 0.00 0.00 0.00 0.00 0.00 0.00 0.00 0.00 0.00 0.00 0.00 0.00 0.00 0.00 0.00 0.00 0.00 0.00 0.00 0.00 0.00 0.00 0.00 0.01 0.00 0.00 0.00 0.00 0.00 0.00 0.00 0.00 0.00 0.00 0.00 0.00 0.00
0.00 0.00 0.00 0.00 0.00 0.00 0.00 0.00 0.00 0.00 0.00 0.00 0.00 0.00 0.00 0.00 0.00 0.00 0.00 0.00 0.00 0.00 0.00 0.00 0.00 0.00 0.00 0.00 0.00 0.00 0.00 0.00 0.00 0.00 0.00 0.00 0.00 0.00
0.00 0.00 0.00 0.00 0.00 0.00 0.00 0.00 0.00 0.00 0.00 0.00 0.00 0.00 0.00 0.00 0.00 0.00 0.00 0.00 0.00 0.00 0.00 0.00 0.00 0.00 0.00 0.00 0.00 0.00 0.00 0.00 0.00 0.00 0.00 0.00 0.00 0.00
0.00 0.00 0.00 0.00 0.00 0.00 0.00 0.00 0.00 0.00 0.00 0.00 0.00 0.00 0.00 0.00 0.00 0.00 0.00 0.00 0.00 0.00 0.00 0.00 0.00 0.00 0.00 0.00 0.00 0.00 0.00 0.00 0.00 0.00 0.00 0.00 0.00 0.00
0.00 0.00 0.00 0.00 0.00 0.00 0.00 0.00 0.00 0.00 0.00 0.00 0.00 0.00 0.00 0.00 0.00 0.00 0.00 0.00 0.00 0.00 0.00 0.00 0.00 0.00 0.00 0.00 0.00 0.00 0.00 0.00 0.00 0.00 0.00 0.00 0.00 0.00
0.00 0.00 0.00 0.00 0.00 0.00 0.00 0.00 0.00 0.00 0.00 0.00 0.00 0.00 0.00 0.00 0.00 0.00 0.00 0.00 0.00 0.00 0.00 0.00 0.00 0.00 0.00 0.00 0.00 0.00 0.00 0.00 0.00 0.00 0.00 0.00 0.00 0.00
0.00 0.00 0.00 0.00 0.00 0.00 0.00 0.00 0.00 0.00 0.00 0.00 0.00 0.00 0.00 0.00 0.00 0.00 0.00 0.00 0.00 0.00 0.01 0.01 0.01 0.00 0.00 0.00 0.00 0.00 0.00 0.00 0.00 0.00 0.00 0.00 0.00 0.00
0.00 0.00 0.00 0.00 0.00 0.00 0.00 0.00 0.00 0.00 0.00 0.00 0.00 0.00 0.00 0.00 0.00 0.00 0.00 0.00 0.00 0.00 0.00 0.01 0.01 0.01 0.01 0.00 0.00 0.00 0.00 0.00 0.00 0.00 0.00 0.00 0.00 0.00
0.00 0.00 0.00 0.00 0.00 0.00 0.00 0.00 0.00 0.00 0.00 0.00 0.00 0.00 0.00 0.00 0.00 0.00 0.00 0.00 0.00 0.00 0.00 0.00 0.01 0.01 0.01 0.01 0.01 0.00 0.00 0.00 0.00 0.00 0.00 0.00 0.00 0.00
0.00 0.00 0.00 0.00 0.00 0.00 0.00 0.00 0.00 0.00 0.00 0.00 0.00 0.00 0.00 0.00 0.00 0.00 0.00 0.00 0.00 0.00 0.00 0.00 0.00 0.00 0.00 0.01 0.00 0.00 0.00 0.00 0.00 0.00 0.00 0.00 0.00 0.00
0.00 0.00 0.00 0.00 0.00 0.00 0.00 0.00 0.00 0.00 0.00 0.00 0.00 0.00 0.00 0.00 0.00 0.00 0.00 0.00 0.00 0.00 0.00 0.00 0.00 0.00 0.00 0.00 0.00 0.00 0.00 0.00 0.00 0.00 0.00 0.00 0.00 0.00
0.00 0.00 0.00 0.00 0.00 0.00 0.00 0.00 0.00 0.00 0.00 0.00 0.00 0.00 0.00 0.00 0.00 0.00 0.00 0.00 0.00 0.00 0.00 0.00 0.00 0.00 0.00 0.00 0.00 0.00 0.00 0.00 0.00 0.00 0.00 0.00 0.00 0.00
0.00 0.00 0.00 0.00 0.00 0.00 0.00 0.00 0.00 0.00 0.00 0.00 0.00 0.00 0.00 0.00 0.00 0.00 0.00 0.00 0.00 0.00 0.00 0.00 0.00 0.00 0.00 0.00 0.00 0.00 0.00 0.00 0.00 0.00 0.00 0.00 0.00 0.00
0.00 0.00 0.00 0.00 0.00 0.00 0.00 0.00 0.00 0.00 0.00 0.00 0.00 0.00 0.00 0.00 0.00 0.00 0.00 0.00 0.00 0.00 0.00 0.00 0.00 0.00 0.00 0.00 0.00 0.00 0.00 0.00 0.00 0.00 0.00 0.00 0.00 0.00
0.00 0.00 0.00 0.00 0.00 0.00 0.00 0.00 0.00 0.00 0.00 0.00 0.00 0.00 0.00 0.00 0.00 0.00 0.00 0.00 0.00 0.00 0.00 0.00 0.00 0.00 0.00 0.00 0.00 0.00 0.00 0.00 0.00 0.00 0.00 0.00 0.00 0.00
0.00 0.00 0.00 0.00 0.00 0.00 0.00 0.00 0.00 0.00 0.00 0.00 0.00 0.00 0.00 0.00 0.00 0.00 0.00 0.00 0.00 0.00 0.00 0.00 0.00 0.00 0.00 0.00 0.00 0.00 0.00 0.00 0.00 0.00 0.00 0.00 0.00 0.00
MSLP
1017.45 1017.83 1018.27 1018.73 1019.21 1019.69 1020.19 1020.69 1021.19 1021.68 1022.16 1022.62 1023.01 1023.34 1023.58 1023.74 1023.81 1023.83 1023.81 1023.79 1023.80 1023.84 1023.94 1024.08 1024.23 1024.38 1024.50 1024.57 1024.56 1024.48 1024.33 1024.12 1023.87 1023.59 1023.27 1022.93 1022.57 1022.17
1018.07 1018.34 1018.65 1018.99 1019.36 1019.75 1020.17 1020.62 1021.10 1021.60 1022.09 1022.56 1022.98 1023.32 1023.58 1023.73 1023.80 1023.80 1023.77 1023.73 1023.72 1023.76 1023.84 1023.98 1024.13 1024.30 1024.43 1024.52 1024.54 1024.48 1024.37 1024.19 1023.97 1023.71 1023.42 1023.10 1022.74 1022.35
1018.79 1018.98 1019.19 1019.43 1019.69 1020.00 1020.35 1020.75 1021.19 1021.67 1022.16 1022.63 1023.06 1023.40 1023.66 1023.81 1023.87 1023.85 1023.79 1023.72 1023.68 1023.68 1023.73 1023.83 1023.97 1024.12 1024.24 1024.34 1024.37 1024.35 1024.26 1024.13 1023.95 1023.73 1023.48 1023.20 1022.88 1022.51
1019.57 1019.71 1019.85 1020.01 1020.20 1020.44 1020.73 1021.07 1021.48 1021.92 1022.39 1022.85 1023.26 1023.60 1023.84 1023.98 1024.02 1023.98 1023.89 1023.79 1023.69 1023.64 1023.64 1023.69 1023.77 1023.88 1023.98 1024.06 1024.10 1024.09 1024.03 1023.93 1023.80 1023.63 1023.43 1023.20 1022.93 1022.60
1020.37 1020.48 1020.59 1020.71 1020.85 1021.04 1021.28 1021.58 1021.93 1022.33 1022.76 1023.19 1023.57 1023.89 1024.11 1024.23 1024.25 1024.19 1024.06 1023.91 1023.77 1023.66 1023.59 1023.57 1023.59 1023.63 1023.69 1023.73 1023.75 1023.74 1023.69 1023.62 1023.53 1023.41 1023.27 1023.09 1022.87 1022.59
1021.15 1021.25 1021.35 1021.46 1021.58 1021.74 1021.94 1022.19 1022.49 1022.84 1023.22 1023.59 1023.94 1024.22 1024.41 1024.51 1024.51 1024.42 1024.28 1024.09 1023.90 1023.73 1023.59 1023.50 1023.44 1023.41 1023.40 1023.39 1023.37 1023.34 1023.30 1023.24 1023.17 1023.09 1022.99 1022.86 1022.69 1022.47
1021.85 1021.97 1022.08 1022.20 1022.32 1022.46 1022.63 1022.83 1023.08 1023.37 1023.68 1023.99 1024.28 1024.52 1024.68 1024.76 1024.74 1024.64 1024.48 1024.27 1024.05 1023.83 1023.64 1023.48 1023.35 1023.25 1023.16 1023.09 1023.02 1022.95 1022.88 1022.82 1022.75 1022.69 1022.62 1022.54 1022.41 1022.24
1022.47 1022.61 1022.75 1022.88 1023.00 1023.13 1023.27 1023.43 1023.61 1023.83 1024.06 1024.31 1024.53 1024.72 1024.85 1024.91 1024.89 1024.79 1024.63 1024.42 1024.18 1023.94 1023.71 1023.49 1023.30 1023.13 1022.98 1022.84 1022.71 1022.59 1022.49 1022.40 1022.32 1022.26 1022.21 1022.15 1022.06 1021.93
1023.00 1023.16 1023.32 1023.47 1023.60 1023.71 1023.81 1023.92 1024.04 1024.18 1024.33 1024.49 1024.65 1024.79 1024.89 1024.93 1024.91 1024.82 1024.68 1024.48 1024.25 1024.01 1023.76 1023.51 1023.28 1023.06 1022.85 1022.65 1022.46 1022.29 1022.14 1022.01 1021.92 1021.84 1021.79 1021.74 1021.68 1021.58
1023.44 1023.62 1023.80 1023.95 1024.08 1024.17 1024.24 1024.29 1024.34 1024.40 1024.47 1024.55 1024.64 1024.73 1024.79 1024.82 1024.80 1024.73 1024.61 1024.44 1024.23 1024.00 1023.76 1023.50 1023.25 1023.00 1022.75 1022.51 1022.27 1022.05 1021.86 1021.69 1021.56 1021.46 1021.39 1021.34 1021.29 1021.23
1023.83 1024.01 1024.19 1024.35 1024.46 1024.53 1024.56 1024.56 1024.54 1024.52 1024.51 1024.51 1024.54 1024.57 1024.60 1024.61 1024.59 1024.53 1024.44 1024.29 1024.12 1023.91 1023.68 1023.44 1023.18 1022.92 1022.66 1022.39 1022.12 1021.87 1021.63 1021.43 1021.26 1021.13 1021.05 1020.99 1020.95 1020.91
1024.19 1024.37 1024.54 1024.68 1024.78 1024.82 1024.80 1024.75 1024.67 1024.58 1024.50 1024.44 1024.40 1024.39 1024.38 1024.36 1024.34 1024.28 1024.20 1024.08 1023.92 1023.74 1023.54 1023.31 1023.07 1022.81 1022.55 1022.27 1021.99 1021.72 1021.46 1021.22 1021.02 1020.87 1020.76 1020.70 1020.66 1020.63
1024.53 1024.70 1024.86 1024.98 1025.05 1025.06 1025.01 1024.91 1024.78 1024.64 1024.51 1024.39 1024.30 1024.24 1024.19 1024.15 1024.10 1024.03 1023.94 1023.83 1023.68 1023.52 1023.33 1023.12 1022.90 1022.66 1022.41 1022.14 1021.87 1021.58 1021.31 1021.06 1020.84 1020.66 1020.53 1020.45 1020.40 1020.38
1024.87 1025.01 1025.15 1025.24 1025.29 1025.27 1025.19 1025.06 1024.90 1024.73 1024.57 1024.42 1024.29 1024.19 1024.10 1024.02 1023.93 1023.84 1023.72 1023.59 1023.44 1023.27 1023.09 1022.90 1022.69 1022.48 1022.24 1021.99 1021.73 1021.45 1021.18 1020.92 1020.68 1020.48 1020.33 1020.23 1020.17 1020.14
1025.18 1025.30 1025.40 1025.48 1025.50 1025.46 1025.36 1025.23 1025.06 1024.88 1024.70 1024.53 1024.38 1024.25 1024.13 1024.00 1023.88 1023.73 1023.58 1023.41 1023.23 1023.04 1022.85 1022.66 1022.46 1022.26 1022.05 1021.82 1021.57 1021.31 1021.04 1020.77 1020.52 1020.30 1020.12 1020.00 1019.92 1019.87
1025.44 1025.53 1025.61 1025.66 1025.66 1025.61 1025.52 1025.39 1025.23 1025.06 1024.89 1024.73 1024.58 1024.42 1024.27 1024.11 1023.92 1023.73 1023.52 1023.29 1023.07 1022.84 1022.63 1022.42 1022.23 1022.03 1021.83 1021.62 1021.39 1021.14 1020.88 1020.60 1020.34 1020.10 1019.89 1019.73 1019.62 1019.55
1025.64 1025.71 1025.76 1025.79 1025.78 1025.73 1025.64 1025.53 1025.40 1025.27 1025.13 1024.98 1024.84 1024.68 1024.50 1024.30 1024.07 1023.81 1023.54 1023.25 1022.96 1022.69 1022.44 1022.21 1022.00 1021.80 1021.61 1021.41 1021.19 1020.94 1020.68 1020.40 1020.12 1019.85 1019.62 1019.42 1019.27 1019.17
1025.77 1025.82 1025.85 1025.86 1025.84 1025.80 1025.73 1025.65 1025.56 1025.46 1025.36 1025.25 1025.12 1024.96 1024.77 1024.54 1024.27 1023.95 1023.62 1023.27 1022.92 1022.59 1022.29 1022.03 1021.79 1021.58 1021.38 1021.18 1020.96 1020.72 1020.45 1020.16 1019.87 1019.57 1019.30 1019.07 1018.88 1018.73
1025.86 1025.89 1025.90 1025.90 1025.88 1025.84 1025.80 1025.75 1025.69 1025.64 1025.58 1025.50 1025.39 1025.24 1025.04 1024.78 1024.47 1024.11 1023.72 1023.31 1022.91 1022.53 1022.18 1021.88 1021.61 1021.38 1021.17 1020.96 1020.74 1020.49 1020.21 1019.92 1019.60 1019.28 1018.98 1018.71 1018.48 1018.29
1025.92 1025.94 1025.94 1025.92 1025.90 1025.88 1025.85 1025.83 1025.81 1025.80 1025.77 1025.72 1025.63 1025.48 1025.27 1025.00 1024.65 1024.25 1023.81 1023.36 1022.91 1022.48 1022.10 1021.76 1021.47 1021.21 1020.98 1020.76 1020.53 1020.28 1020.00 1019.69 1019.36 1019.02 1018.69 1018.39 1018.12 1017.88
1025.99 1025.99 1025.99 1025.97 1025.95 1025.93 1025.92 1025.92 1025.93 1025.93 1025.93 1025.89 1025.81 1025.66 1025.44 1025.15 1024.78 1024.35 1023.88 1023.39 1022.91 1022.45 1022.04 1021.67 1021.36 1021.09 1020.84 1020.61 1020.37 1020.12 1019.83 1019.52 1019.19 1018.84 1018.49 1018.16 1017.85 1017.58
1026.06 1026.07 1026.07 1026.05 1026.04 1026.03 1026.02 1026.03 1026.05 1026.06 1026.06 1026.02 1025.93 1025.78 1025.55 1025.23 1024.84 1024.39 1023.90 1023.40 1022.89 1022.42 1021.99 1021.62 1021.29 1021.01 1020.76 1020.52 1020.28 1020.03 1019.75 1019.44 1019.11 1018.76 1018.41 1018.07 1017.74 1017.43
1026.15 1026.17 1026.18 1026.17 1026.16 1026.16 1026.16 1026.17 1026.18 1026.19 1026.17 1026.12 1026.01 1025.83 1025.58 1025.24 1024.84 1024.38 1023.88 1023.37 1022.86 1022.39 1021.96 1021.59 1021.27 1020.99 1020.74 1020.51 1020.28 1020.03 1019.77 1019.47 1019.16 1018.82 1018.47 1018.12 1017.78 1017.44
Thickness
5617 5616 5615 5614 5614 5612 5610 5607 5600 5590 5583 5581 5581 5581 5580 5578 5576 5574 5572 5569 5566 5564 5561 5558 5555 5552 5548 5545 5542 5540 5537 5535 5533 5531 5530 5529 5528 5527
5604 5604 5602 5601 5601 5599 5597 5595 5592 5585 5575 5572 5572 5571 5570 5568 5566 5563 5561 5559 5556 5553 5550 5547 5544 5540 5536 5533 5530 5527 5524 5521 5519 5517 5515 5514 5512 5511
5591 5590 5589 5588 5587 5585 5584 5582 5579 5575 5567 5562 5561 5561 5559 5557 5555 5553 5551 5549 5546 5543 5540 5537 5533 5529 5525 5522 5519 5516 5513 5510 5507 5504 5502 5500 5498 5497
5577 5577 5575 5575 5573 5571 5570 5567 5564 5562 5557 5552 5550 5548 5547 5546 5544 5542 5540 5538 5536 5534 5531 5527 5523 5520 5516 5512 5509 5506 5503 5499 5496 5493 5491 5489 5486 5484
5565 5563 5562 5561 5558 5557 5555 5553 5551 5549 5545 5541 5537 5535 5534 5534 5532 5531 5530 5528 5527 5524 5522 5518 5515 5512 5508 5505 5501 5498 5495 5491 5488 5485 5482 5479 5477 5475
5552 5551 5550 5548 5546 5544 5543 5540 5538 5536 5532 5528 5525 5523 5522 5522 5520 5518 5517 5516 5516 5515 5513 5511 5508 5505 5502 5498 5495 5492 5488 5484 5481 5478 5475 5472 5469 5466
5540 5539 5538 5537 5536 5534 5532 5529 5527 5523 5520 5517 5514 5512 5510 5510 5508 5507 5505 5505 5506 5506 5504 5503 5501 5498 5496 5493 5490 5487 5483 5480 5476 5473 5470 5466 5463 5460
5528 5527 5526 5525 5525 5525 5523 5522 5519 5515 5511 5508 5504 5503 5502 5501 5500 5499 5496 5495 5494 5497 5495 5494 5494 5492 5491 5488 5486 5483 5480 5476 5473 5469 5466 5462 5459 5456
5518 5517 5517 5515 5515 5514 5514 5513 5511 5509 5506 5502 5498 5497 5496 5495 5494 5492 5490 5488 5488 5490 5488 5488 5488 5486 5487 5486 5483 5481 5477 5474 5471 5467 5463 5460 5456 5453
5508 5507 5505 5504 5505 5504 5504 5502 5501 5499 5498 5496 5494 5493 5493 5492 5490 5488 5486 5485 5485 5486 5485 5482 5482 5482 5484 5483 5481 5478 5476 5473 5469 5465 5462 5458 5455 5452
5499 5498 5497 5495 5495 5495 5494 5491 5491 5491 5492 5491 5491 5490 5490 5489 5487 5484 5482 5479 5478 5480 5481 5478 5477 5477 5478 5479 5479 5477 5474 5471 5468 5465 5462 5458 5455 5451
5489 5489 5488 5488 5487 5487 5485 5483 5482 5482 5483 5485 5486 5487 5487 5486 5485 5482 5479 5475 5473 5473 5477 5475 5474 5472 5471 5475 5476 5476 5473 5471 5469 5466 5463 5459 5456 5452
5482 5481 5482 5482 5482 5481 5480 5478 5477 5477 5477 5478 5478 5480 5481 5481 5481 5480 5478 5475 5472 5472 5476 5474 5472 5469 5467 5468 5472 5474 5473 5471 5469 5467 5464 5461 5458 5453
5476 5476 5477 5478 5478 5478 5477 5476 5476 5475 5473 5473 5473 5473 5474 5475 5477 5478 5478 5477 5476 5476 5477 5474 5471 5470 5467 5466 5467 5470 5472 5471 5469 5467 5465 5463 5460 5456
5472 5473 5474 5475 5475 5474 5474 5473 5472 5470 5469 5467 5467 5467 5469 5471 5474 5475 5477 5477 5478 5478 5478 5476 5474 5472 5468 5467 5466 5467 5468 5470 5470 5468 5466 5464 5462 5458
5469 5470 5471 5471 5471 5470 5470 5469 5468 5467 5465 5463 5463 5465 5467 5469 5470 5470 5471 5471 5472 5474 5478 5477 5476 5474 5472 5471 5468 5468 5468 5468 5470 5469 5467 5466 5464 5461
5465 5465 5465 5464 5463 5463 5463 5463 5463 5463 5462 5461 5461 5462 5463 5464 5466 5467 5467 5468 5467 5468 5470 5476 5477 5476 5476 5473 5471 5471 5470 5470 5471 5470 5467 5465 5466 5464
5462 5459 5458 5458 5458 5457 5457 5458 5458 5458 5459 5459 5459 5459 5460 5461 5462 5465 5466 5465 5466 5467 5469 5472 5473 5474 5474 5476 5476 5474 5473 5472 5473 5472 5469 5465 5465 5467
5460 5458 5457 5456 5456 5455 5455 5455 5455 5456 5457 5457 5457 5457 5458 5460 5461 5462 5464 5465 5466 5468 5470 5472 5472 5471 5469 5469 5477 5480 5476 5475 5474 5473 5471 5467 5466 5467
5460 5458 5457 5456 5455 5455 5454 5454 5454 5455 5455 5455 5455 5456 5456 5458 5459 5461 5462 5464 5465 5467 5470 5473 5473 5472 5470 5471 5474 5479 5482 5478 5476 5474 5473 5471 5469 5469
5460 5459 5458 5457 5456 5455 5455 5454 5454 5454 5454 5454 5454 5455 5455 5456 5458 5460 5462 5465 5466 5467 5469 5472 5476 5478 5478 5476 5475 5478 5483 5484 5482 5478 5475 5471 5468 5466
5463 5462 5460 5459 5458 5457 5456 5455 5454 5453 5453 5453 5453 5454 5455 5457 5458 5460 5462 5464 5466 5468 5471 5474 5478 5480 5479 5477 5476 5476 5479 5483 5485 5483 5479 5476 5470 5466
5467 5465 5463 5462 5461 5459 5458 5456 5456 5454 5453 5453 5454 5454 5456 5457 5459 5461 5463 5466 5468 5470 5472 5473 5476 5477 5478 5477 5476 5476 5479 5479 5478 5478 5480 5480 5477 5474